Weather History for LDPL - October, 2012

Change the Weather History Date:

Wednesday, October 17, 2012

  Actual Average Record
Temperature  
Mean Temperature 58 °F -  
Max Temperature 69 °F - - ()
Min Temperature 47 °F - - ()
Degree Days  
Heating Degree Days 7    
Growing Degree Days 8 (Base 50)    
Moisture  
Dew Point 51 °F    
Average Humidity 80    
Maximum Humidity 94    
Minimum Humidity 44    
Precipitation  
Precipitation 0.00 in - - ()
Sea Level Pressure  
Sea Level Pressure 30.16 in    
Wind  
Wind Speed 4 mph ()    
Max Wind Speed 7 mph    
Max Gust Speed -    
Visibility 7.9 miles    
Events      
T = Trace of Precipitation, MM = Missing Value Source: Averaged Metar Reports

Daily Weather History Graph

Daily Weather History Graph

Search for Another Location

Airport or City:

Trip Planner

Search our weather history database for the weather conditions in past years. The results will help you decide how hot, cold, wet, or windy it might be!

Date:

Astronomy

Oct. 17, 2012 Rise Set
Actual Time 7:22 AM CEST 6:15 PM CEST
Civil Twilight 6:53 AM CEST 6:45 PM CEST
Nautical Twilight 6:19 AM CEST 7:19 PM CEST
Astronomical Twilight 5:45 AM CEST 7:53 PM CEST
Moon 9:44 AM CEST (10/17) 7:28 PM CEST (10/17)
Length of Visible Light 11h 52m
Length of Day
10h 52m
Waxing Crescent, 5% of the Moon is Illuminated
Oct 17
Waxing Crescent
Oct 22
First Quarter
Oct 29
Full
Nov 7
Last Quarter
Nov 13
New

Hourly Weather History & Observations

Time (CEST) Temp. Dew Point Humidity Pressure Visibility Wind Dir Wind Speed Gust Speed Precip Events Conditions
12:00 AM 53.6 °F 51.8 °F 94% 30.04 in 6.2 mi ENE 5.8 mph - N/A   Partly Cloudy
12:30 AM 55.4 °F 51.8 °F 88% 30.06 in 6.2 mi East 5.8 mph - N/A   Partly Cloudy
1:00 AM 53.6 °F 51.8 °F 94% 30.06 in 6.2 mi East 4.6 mph - N/A   Partly Cloudy
1:30 AM 51.8 °F 48.2 °F 88% 30.06 in 6.2 mi East 4.6 mph - N/A   Partly Cloudy
2:00 AM 51 °F 48 °F 86% 30.10 in 12 mi East 4.5 mph - -  
2:00 AM 51.8 °F 48.2 °F 88% 30.09 in - East 4.6 mph - N/A   Clear
2:30 AM 50.0 °F 48.2 °F 94% 30.09 in - East 4.6 mph - N/A   Clear
3:00 AM 51.8 °F 50.0 °F 94% 30.09 in - East 4.6 mph - N/A   Clear
3:30 AM 48.2 °F 46.4 °F 93% 30.09 in - East 4.6 mph - N/A   Clear
4:00 AM 50.0 °F 48.2 °F 94% 30.09 in - Variable 4.6 mph - N/A   Clear
4:30 AM 50.0 °F 48.2 °F 94% 30.09 in - Variable 2.3 mph - N/A   Clear
5:00 AM 50 °F 48 °F 91% 30.12 in 12 mi ENE 4.5 mph - -  
5:00 AM 50.0 °F 48.2 °F 94% 30.09 in - ENE 4.6 mph - N/A   Clear
5:30 AM 48.2 °F 46.4 °F 93% 30.09 in - East 4.6 mph - N/A   Clear
6:00 AM 49 °F 48 °F 93% 30.14 in 12 mi East 4.5 mph - -   Scattered Clouds
6:00 AM 50.0 °F 48.2 °F 94% 30.12 in 6.2 mi East 4.6 mph - N/A   Partly Cloudy
6:30 AM 48.2 °F 46.4 °F 93% 30.12 in 6.2 mi East 4.6 mph - N/A   Partly Cloudy
7:00 AM 49 °F 47 °F 90% 30.14 in 19 mi East 6.7 mph - -   Scattered Clouds
7:00 AM 48.2 °F 46.4 °F 93% 30.12 in 6.2 mi East 5.8 mph - N/A   Partly Cloudy
7:30 AM 50.0 °F 48.2 °F 94% 30.12 in 6.2 mi East 4.6 mph - N/A   Partly Cloudy
8:00 AM 50 °F 48 °F 90% 30.17 in 25 mi East 4.5 mph - -   Scattered Clouds
8:00 AM 50.0 °F 48.2 °F 94% 30.15 in 6.2 mi East 4.6 mph - N/A   Partly Cloudy
8:30 AM 53.6 °F 51.8 °F 94% 30.15 in - East 4.6 mph - N/A   Clear
9:00 AM 59.0 °F 57.2 °F 94% 30.18 in - East 4.6 mph - N/A   Clear
9:30 AM 62.6 °F 57.2 °F 82% 30.18 in - ESE 4.6 mph - N/A   Clear
10:00 AM 64.4 °F 57.2 °F 77% 30.18 in - East 4.6 mph - N/A   Clear
10:30 AM 64.4 °F 55.4 °F 73% 30.18 in - Variable 3.5 mph - N/A   Clear
11:00 AM 67 °F 56 °F 59% 30.21 in 25 mi SSE 2.2 mph - -   Scattered Clouds
11:00 AM 68.0 °F 55.4 °F 64% 30.21 in 6.2 mi Variable 2.3 mph - N/A   Partly Cloudy
11:30 AM 66.2 °F 55.4 °F 68% 30.21 in 6.2 mi Variable 3.5 mph - N/A   Partly Cloudy
12:00 PM 66.2 °F 53.6 °F 64% 30.21 in 6.2 mi South 5.8 mph - N/A   Scattered Clouds
12:30 PM 68.0 °F 53.6 °F 60% 30.21 in 6.2 mi SSW 4.6 mph - N/A   Scattered Clouds
1:00 PM 66.2 °F 51.8 °F 60% 30.21 in 6.2 mi Variable 4.6 mph - N/A   Scattered Clouds
1:30 PM 68.0 °F 51.8 °F 56% 30.21 in 6.2 mi SW 5.8 mph - N/A   Partly Cloudy
2:00 PM 69 °F 52 °F 44% 30.21 in 25 mi SSW 4.5 mph - -   Scattered Clouds
2:00 PM 68.0 °F 51.8 °F 56% 30.21 in 6.2 mi SSW 4.6 mph - N/A   Partly Cloudy
2:30 PM 68.0 °F 50.0 °F 52% 30.18 in 6.2 mi SW 6.9 mph - N/A   Partly Cloudy
3:00 PM 68.0 °F 51.8 °F 56% 30.18 in 6.2 mi SW 5.8 mph - N/A   Partly Cloudy
3:30 PM 68.0 °F 51.8 °F 56% 30.18 in - SSW 4.6 mph - N/A   Clear
4:00 PM 68.0 °F 51.8 °F 56% 30.18 in - SSW 4.6 mph - N/A   Clear
4:30 PM 68.0 °F 51.8 °F 56% 30.18 in - SW 4.6 mph - N/A   Clear
5:00 PM 67 °F 52 °F 48% 30.20 in 25 mi SSW 4.5 mph - -   Clear
5:00 PM 66.2 °F 51.8 °F 60% 30.18 in - Variable 4.6 mph - N/A   Clear
5:30 PM 66.2 °F 53.6 °F 64% 30.18 in - Variable 2.3 mph - N/A   Clear
6:00 PM 64.4 °F 53.6 °F 68% 30.18 in - Variable 1.2 mph - N/A   Clear
6:30 PM 60.8 °F 53.6 °F 77% 30.18 in - Variable 1.2 mph - N/A   Clear
7:00 PM 57.2 °F 53.6 °F 88% 30.18 in - Variable 1.2 mph - N/A   Clear
7:30 PM 55.4 °F 53.6 °F 94% 30.21 in - Variable 2.3 mph - N/A   Clear
8:00 PM 55 °F 52 °F 85% 30.22 in 25 mi ENE 2.2 mph - -   Clear
8:00 PM 55.4 °F 51.8 °F 88% 30.21 in - Variable 2.3 mph - N/A   Clear
8:30 PM 55.4 °F 53.6 °F 94% 30.21 in - ENE 4.6 mph - N/A   Clear
9:00 PM 55.4 °F 51.8 °F 88% 30.21 in - ENE 4.6 mph - N/A   Clear
9:30 PM 55.4 °F 51.8 °F 88% 30.21 in - ENE 4.6 mph - N/A   Clear
10:00 PM 53.6 °F 51.8 °F 94% 30.21 in - ENE 4.6 mph - N/A   Clear
10:30 PM 55.4 °F 53.6 °F 94% 30.21 in 6.2 mi ENE 4.6 mph - N/A   Partly Cloudy
11:00 PM 56 °F 53 °F 88% 30.22 in 19 mi ENE 4.5 mph - -   Scattered Clouds
11:00 PM 55.4 °F 53.6 °F 94% 30.21 in 6.2 mi ENE 4.6 mph - N/A   Partly Cloudy
11:30 PM 57.2 °F 53.6 °F 88% 30.21 in 6.2 mi ENE 4.6 mph - N/A   Partly Cloudy